Location: Asheville, NC
(35.6000°N, 82.5500°W)
Time: 01:30:26
(UTC-05:00)

Tiangong 1 - Pass Details

Date: 18 February 2018
Orbit: 246 x 267 km, 42.8° (Epoch: 23 February)

Event Time Altitude Azimuth Distance (km) Brightness Sun altitude
Exits shadow 05:42:51 25° 52° (NE) 555 2.4 -19.1°
Drops below altitude 10° 05:44:18 10° 85° (E) 1,018 4.5 -18.8°
Sets 05:46:18 0° 97° (E) 1,823 6.2 -18.4°
